sat.trackr.live / text

‹ back to catalog

BEIDOU-3 M18 (C37)

NORAD 43707 · 2018-093B

PAYLOAD ACTIVE UNKNOWN

§ Identity

Operator
Country
PRC
Launch date
2018-11-18
Launch site
XICLF
Launch vehicle
Mass (kg)
RCS (m²)

Purposes: nav

External: N2YO · Heavens-Above · Gunter

§ Orbital elements

Epoch: 2026-09-14T07:25:42.529728Z

Period
773.25 min
Inclination
54.1670°
Eccentricity
0.0007508
Mean motion
1.86226671 rev/d
Perigee alt
21,507.5 km
Apogee alt
21,549.4 km
Semi-major
27,906.6 km
B*
0.0000e+0
RAAN
179.2666°
Arg perigee
338.2106°
Mean anomaly
21.7735°
Rev number
5,319

§ Raw data

BEIDOU-3 M18 (C37)1 43707U 18093B   26257.30952002  .00000009  00000+0  00000+0 0  99922 43707  54.1670 179.2666 0007508 338.2106  21.7735  1.86226671 53198

JSON: /api/v1/satellites/43707 · /tle

For live sub-satellite position, see the globe view (requires WebGL).

§ Visibility from observer

Set your observer location to see the next 7 days of passes ≥ 10°. The values pass through the URL so the page stays shareable.

No JS? Fill the form by hand. The geolocation button needs JavaScript.